Year,Month,Day,Hour,Minute,Value (Times are PST for temperature in C)
2019,07,15,00,00,13.40
2019,07,15,00,01,13.40
2019,07,15,00,02,13.40
2019,07,15,00,03,13.40
2019,07,15,00,04,13.40
2019,07,15,00,05,13.40
2019,07,15,00,06,13.40
2019,07,15,00,07,13.30
2019,07,15,00,08,13.30
2019,07,15,00,09,13.30
2019,07,15,00,10,13.30
2019,07,15,00,11,13.30
2019,07,15,00,12,13.30
2019,07,15,00,13,13.30
2019,07,15,00,14,13.30
2019,07,15,00,15,13.30
2019,07,15,00,16,13.30
2019,07,15,00,17,13.30
2019,07,15,00,18,13.30
2019,07,15,00,19,13.30
2019,07,15,00,20,13.30
2019,07,15,00,21,13.30
2019,07,15,00,22,13.30
2019,07,15,00,23,13.40
2019,07,15,00,24,13.40
2019,07,15,00,25,13.40
2019,07,15,00,26,13.40
2019,07,15,00,27,13.40
2019,07,15,00,28,13.40
2019,07,15,00,29,13.40
2019,07,15,00,30,13.40
2019,07,15,00,31,13.40
2019,07,15,00,32,13.40
2019,07,15,00,33,13.40
2019,07,15,00,34,13.50
2019,07,15,00,35,13.50
2019,07,15,00,36,13.50
2019,07,15,00,37,13.50
2019,07,15,00,38,13.50
2019,07,15,00,39,13.50
2019,07,15,00,40,13.50
2019,07,15,00,41,13.50
2019,07,15,00,42,13.50
2019,07,15,00,43,13.50
2019,07,15,00,44,13.60
2019,07,15,00,45,13.60
2019,07,15,00,46,13.60
2019,07,15,00,47,13.60
2019,07,15,00,48,13.60
2019,07,15,00,49,13.60
2019,07,15,00,50,13.60
2019,07,15,00,51,13.60
2019,07,15,00,52,13.60
2019,07,15,00,53,13.60
2019,07,15,00,54,13.60
2019,07,15,00,55,13.60
2019,07,15,00,56,13.60
2019,07,15,00,57,13.60
2019,07,15,00,58,13.60
2019,07,15,00,59,13.60
2019,07,15,01,00,13.60
2019,07,15,01,01,13.60
2019,07,15,01,02,13.60
2019,07,15,01,03,13.60
2019,07,15,01,04,13.60
2019,07,15,01,05,13.60
2019,07,15,01,06,13.60
2019,07,15,01,07,13.60
2019,07,15,01,08,13.60
2019,07,15,01,09,13.60
2019,07,15,01,10,13.60
2019,07,15,01,11,13.60
2019,07,15,01,12,13.60
2019,07,15,01,13,13.60
2019,07,15,01,14,13.60
2019,07,15,01,15,13.60
2019,07,15,01,16,13.60
2019,07,15,01,17,13.60
2019,07,15,01,18,13.60
2019,07,15,01,19,13.50
2019,07,15,01,20,13.50
2019,07,15,01,21,13.50
2019,07,15,01,22,13.50
2019,07,15,01,23,13.50
2019,07,15,01,24,13.50
2019,07,15,01,25,13.50
2019,07,15,01,26,13.40
2019,07,15,01,27,13.40
2019,07,15,01,28,13.40
2019,07,15,01,29,13.40
2019,07,15,01,30,13.40
2019,07,15,01,31,13.40
2019,07,15,01,32,13.40
2019,07,15,01,33,13.40
2019,07,15,01,34,13.40
2019,07,15,01,35,13.30
2019,07,15,01,36,13.30
2019,07,15,01,37,13.30
2019,07,15,01,38,13.30
2019,07,15,01,39,13.30
2019,07,15,01,40,13.30
2019,07,15,01,41,13.30
2019,07,15,01,42,13.30
2019,07,15,01,43,13.30
2019,07,15,01,44,13.30
2019,07,15,01,45,13.30
2019,07,15,01,46,13.30
2019,07,15,01,47,13.30
2019,07,15,01,48,13.30
2019,07,15,01,49,13.30
2019,07,15,01,50,13.30
2019,07,15,01,51,13.30
2019,07,15,01,52,13.30
2019,07,15,01,53,13.30
2019,07,15,01,54,13.30
2019,07,15,01,55,13.30
2019,07,15,01,56,13.30
2019,07,15,01,57,13.30
2019,07,15,01,58,13.30
2019,07,15,01,59,13.30
2019,07,15,02,00,13.40
2019,07,15,02,01,13.40
2019,07,15,02,02,13.40
2019,07,15,02,03,13.40
2019,07,15,02,04,13.40
2019,07,15,02,05,13.40
2019,07,15,02,06,13.40
2019,07,15,02,07,13.40
2019,07,15,02,08,13.40
2019,07,15,02,09,13.40
2019,07,15,02,10,13.50
2019,07,15,02,11,13.40
2019,07,15,02,12,13.50
2019,07,15,02,13,13.50
2019,07,15,02,14,13.50
2019,07,15,02,15,13.50
2019,07,15,02,16,13.50
2019,07,15,02,17,13.50
2019,07,15,02,18,13.50
2019,07,15,02,19,13.50
2019,07,15,02,20,13.60
2019,07,15,02,21,13.60
2019,07,15,02,22,13.60
2019,07,15,02,23,13.60
2019,07,15,02,24,13.60
2019,07,15,02,25,13.60
2019,07,15,02,26,13.60
2019,07,15,02,27,13.60
2019,07,15,02,28,13.60
2019,07,15,02,29,13.60
2019,07,15,02,30,13.60
2019,07,15,02,31,13.60
2019,07,15,02,32,13.60
2019,07,15,02,33,13.60
2019,07,15,02,34,13.60
2019,07,15,02,35,13.60
2019,07,15,02,36,13.60
2019,07,15,02,37,13.60
2019,07,15,02,38,13.60
2019,07,15,02,39,13.60
2019,07,15,02,40,13.60
2019,07,15,02,41,13.60
2019,07,15,02,42,13.60
2019,07,15,02,43,13.60
2019,07,15,02,44,13.60
2019,07,15,02,45,13.60
2019,07,15,02,46,13.60
2019,07,15,02,47,13.70
2019,07,15,02,48,13.70
2019,07,15,02,49,13.70
2019,07,15,02,50,13.70
2019,07,15,02,51,13.70
2019,07,15,02,52,13.70
2019,07,15,02,53,13.70
2019,07,15,02,54,13.70
2019,07,15,02,55,13.70
2019,07,15,02,56,13.70
2019,07,15,02,57,13.70
2019,07,15,02,58,13.70
2019,07,15,02,59,13.80
2019,07,15,03,00,13.80
2019,07,15,03,01,13.80
2019,07,15,03,02,13.80
2019,07,15,03,03,13.80
2019,07,15,03,04,13.80
2019,07,15,03,05,13.80
2019,07,15,03,06,13.90
2019,07,15,03,07,13.90
2019,07,15,03,08,13.90
2019,07,15,03,09,13.90
2019,07,15,03,10,13.90
2019,07,15,03,11,13.90
2019,07,15,03,12,13.90
2019,07,15,03,13,13.90
2019,07,15,03,14,13.90
2019,07,15,03,15,13.90
2019,07,15,03,16,13.90
2019,07,15,03,17,13.90
2019,07,15,03,18,14.00
2019,07,15,03,19,14.00
2019,07,15,03,20,14.00
2019,07,15,03,21,14.00
2019,07,15,03,22,14.00
2019,07,15,03,23,14.00
2019,07,15,03,24,14.00
2019,07,15,03,25,14.00
2019,07,15,03,26,14.00
2019,07,15,03,27,14.00
2019,07,15,03,28,14.00
2019,07,15,03,29,14.00
2019,07,15,03,30,14.00
2019,07,15,03,31,14.00
2019,07,15,03,32,14.00
2019,07,15,03,33,14.00
2019,07,15,03,34,14.00
2019,07,15,03,35,14.00
2019,07,15,03,36,14.00
2019,07,15,03,37,14.00
2019,07,15,03,38,14.10
2019,07,15,03,39,14.10
2019,07,15,03,40,14.10
2019,07,15,03,41,14.10
2019,07,15,03,42,14.10
2019,07,15,03,43,14.10
2019,07,15,03,44,14.10
2019,07,15,03,45,14.10
2019,07,15,03,46,14.10
2019,07,15,03,47,14.10
2019,07,15,03,48,14.10
2019,07,15,03,49,14.10
2019,07,15,03,50,14.10
2019,07,15,03,51,14.10
2019,07,15,03,52,14.10
2019,07,15,03,53,14.10
2019,07,15,03,54,14.10
2019,07,15,03,55,14.10
2019,07,15,03,56,14.10
2019,07,15,03,57,14.10
2019,07,15,03,58,14.10
2019,07,15,03,59,14.10
2019,07,15,04,00,14.10
2019,07,15,04,01,14.10
2019,07,15,04,02,14.10
2019,07,15,04,03,14.10
2019,07,15,04,04,14.10
2019,07,15,04,05,14.10
2019,07,15,04,06,14.10
2019,07,15,04,07,14.10
2019,07,15,04,08,14.00
2019,07,15,04,09,14.00
2019,07,15,04,10,14.10
2019,07,15,04,11,14.00
2019,07,15,04,12,14.00
2019,07,15,04,13,14.00
2019,07,15,04,14,14.00
2019,07,15,04,15,14.00
2019,07,15,04,16,14.00
2019,07,15,04,17,14.00
2019,07,15,04,18,14.00
2019,07,15,04,19,14.00
2019,07,15,04,20,14.00
2019,07,15,04,21,14.00
2019,07,15,04,22,14.00
2019,07,15,04,23,14.00
2019,07,15,04,24,14.00
2019,07,15,04,25,14.00
2019,07,15,04,26,14.00
2019,07,15,04,27,14.00
2019,07,15,04,28,14.00
2019,07,15,04,29,13.90
2019,07,15,04,30,13.90
2019,07,15,04,31,14.00
2019,07,15,04,32,13.90
2019,07,15,04,33,13.90
2019,07,15,04,34,13.90
2019,07,15,04,35,13.90
2019,07,15,04,36,13.90
2019,07,15,04,37,13.90
2019,07,15,04,38,13.90
2019,07,15,04,39,13.90
2019,07,15,04,40,13.90
2019,07,15,04,41,13.90
2019,07,15,04,42,13.90
2019,07,15,04,43,13.90
2019,07,15,04,44,13.90
2019,07,15,04,45,13.90
2019,07,15,04,46,13.90
2019,07,15,04,47,13.90
2019,07,15,04,48,13.90
2019,07,15,04,49,13.90
2019,07,15,04,50,13.90
2019,07,15,04,51,13.90
2019,07,15,04,52,13.80
2019,07,15,04,53,13.80
2019,07,15,04,54,13.80
2019,07,15,04,55,13.80
2019,07,15,04,56,13.90
2019,07,15,04,57,13.90
2019,07,15,04,58,13.90
2019,07,15,04,59,13.80
2019,07,15,05,00,13.90
2019,07,15,05,01,13.90
2019,07,15,05,02,13.90
2019,07,15,05,03,13.90
2019,07,15,05,04,13.90
2019,07,15,05,05,13.90
2019,07,15,05,06,13.90
2019,07,15,05,07,13.90
2019,07,15,05,08,13.90
2019,07,15,05,09,13.90
2019,07,15,05,10,13.90
2019,07,15,05,11,13.90
2019,07,15,05,12,13.90
2019,07,15,05,13,13.90
2019,07,15,05,14,13.90
2019,07,15,05,15,13.90
2019,07,15,05,16,13.90
2019,07,15,05,17,13.90
2019,07,15,05,18,14.00
2019,07,15,05,19,14.00
2019,07,15,05,20,14.00
2019,07,15,05,21,14.00
2019,07,15,05,22,14.00
2019,07,15,05,23,14.00
2019,07,15,05,24,14.00
2019,07,15,05,25,14.00
2019,07,15,05,26,14.10
2019,07,15,05,27,14.10
2019,07,15,05,28,14.10
2019,07,15,05,29,14.10
2019,07,15,05,30,14.10
2019,07,15,05,31,14.10
2019,07,15,05,32,14.10
2019,07,15,05,33,14.10
2019,07,15,05,34,14.10
2019,07,15,05,35,14.10
2019,07,15,05,36,14.10
2019,07,15,05,37,14.10
2019,07,15,05,38,14.20
2019,07,15,05,39,14.20
2019,07,15,05,40,14.20
2019,07,15,05,41,14.20
2019,07,15,05,42,14.20
2019,07,15,05,43,14.20
2019,07,15,05,44,14.20
2019,07,15,05,45,14.20
2019,07,15,05,46,14.20
2019,07,15,05,47,14.20
2019,07,15,05,48,14.20
2019,07,15,05,49,14.30
2019,07,15,05,50,14.30
2019,07,15,05,51,14.30
2019,07,15,05,52,14.30
2019,07,15,05,53,14.30
2019,07,15,05,54,14.30
2019,07,15,05,55,14.30
2019,07,15,05,56,14.30
2019,07,15,05,57,14.30
2019,07,15,05,58,14.30
2019,07,15,05,59,14.30
2019,07,15,06,00,14.30
2019,07,15,06,01,14.30
2019,07,15,06,02,14.30
2019,07,15,06,03,14.30
2019,07,15,06,04,14.30
2019,07,15,06,05,14.30
2019,07,15,06,06,14.30
2019,07,15,06,07,14.30
2019,07,15,06,08,14.30
2019,07,15,06,09,14.30
2019,07,15,06,10,14.30
2019,07,15,06,11,14.30
2019,07,15,06,12,14.30
2019,07,15,06,13,14.30
2019,07,15,06,14,14.30
2019,07,15,06,15,14.30
2019,07,15,06,16,14.30
2019,07,15,06,17,14.30
2019,07,15,06,18,14.30
2019,07,15,06,19,14.30
2019,07,15,06,20,14.30
2019,07,15,06,21,14.30
2019,07,15,06,22,14.30
2019,07,15,06,23,14.30
2019,07,15,06,24,14.30
2019,07,15,06,25,14.30
2019,07,15,06,26,14.30
2019,07,15,06,27,14.30
2019,07,15,06,28,14.30
2019,07,15,06,29,14.30
2019,07,15,06,30,14.30
2019,07,15,06,31,14.30
2019,07,15,06,32,14.30
2019,07,15,06,33,14.40
2019,07,15,06,34,14.40
2019,07,15,06,35,14.40
2019,07,15,06,36,14.40
2019,07,15,06,37,14.40
2019,07,15,06,38,14.40
2019,07,15,06,39,14.40
2019,07,15,06,40,14.40
2019,07,15,06,41,14.40
2019,07,15,06,42,14.40
2019,07,15,06,43,14.40
2019,07,15,06,44,14.40
2019,07,15,06,45,14.40
2019,07,15,06,46,14.40
2019,07,15,06,47,14.40
2019,07,15,06,48,14.50
2019,07,15,06,49,14.50
2019,07,15,06,50,14.50
2019,07,15,06,51,14.50
2019,07,15,06,52,14.50
2019,07,15,06,53,14.60
2019,07,15,06,54,14.60
2019,07,15,06,55,14.60
2019,07,15,06,56,14.60
2019,07,15,06,57,14.60
2019,07,15,06,58,14.60
2019,07,15,06,59,14.60
2019,07,15,07,00,14.70
2019,07,15,07,01,14.70
2019,07,15,07,02,14.70
2019,07,15,07,03,14.70
2019,07,15,07,04,14.70
2019,07,15,07,05,14.70
2019,07,15,07,06,14.70
2019,07,15,07,07,14.70
2019,07,15,07,08,14.70
2019,07,15,07,09,14.80
2019,07,15,07,10,14.80
2019,07,15,07,11,14.80
2019,07,15,07,12,14.80
2019,07,15,07,13,14.80
2019,07,15,07,14,14.80
2019,07,15,07,15,14.90
2019,07,15,07,16,14.90
2019,07,15,07,17,14.90
2019,07,15,07,18,15.00
2019,07,15,07,19,15.00
2019,07,15,07,20,15.00
2019,07,15,07,21,15.00
2019,07,15,07,22,15.10
2019,07,15,07,23,15.10
2019,07,15,07,24,15.10
2019,07,15,07,25,15.20
2019,07,15,07,26,15.20
2019,07,15,07,27,15.20
2019,07,15,07,28,15.30
2019,07,15,07,29,15.30
2019,07,15,07,30,15.40
2019,07,15,07,31,15.40
2019,07,15,07,32,15.40
2019,07,15,07,33,15.50
2019,07,15,07,34,15.50
2019,07,15,07,35,15.60
2019,07,15,07,36,15.60
2019,07,15,07,37,15.60
2019,07,15,07,38,15.70
2019,07,15,07,39,15.70
2019,07,15,07,40,15.70
2019,07,15,07,41,15.80
2019,07,15,07,42,15.80
2019,07,15,07,43,15.80
2019,07,15,07,44,15.90
2019,07,15,07,45,15.90
2019,07,15,07,46,15.90
2019,07,15,07,47,15.90
2019,07,15,07,48,16.00
2019,07,15,07,49,16.00
2019,07,15,07,50,16.00
2019,07,15,07,51,16.10
2019,07,15,07,52,16.10
2019,07,15,07,53,16.10
2019,07,15,07,54,16.10
2019,07,15,07,55,16.10
2019,07,15,07,56,16.20
2019,07,15,07,57,16.20
2019,07,15,07,58,16.20
2019,07,15,07,59,16.20
2019,07,15,08,00,16.20
2019,07,15,08,01,16.20
2019,07,15,08,02,16.20
2019,07,15,08,03,16.20
2019,07,15,08,04,16.30
2019,07,15,08,05,16.30
2019,07,15,08,06,16.30
2019,07,15,08,07,16.30
2019,07,15,08,08,16.30
2019,07,15,08,09,16.30
2019,07,15,08,10,16.30
2019,07,15,08,11,16.30
2019,07,15,08,12,16.40
2019,07,15,08,13,16.30
2019,07,15,08,14,16.40
2019,07,15,08,15,16.40
2019,07,15,08,16,16.40
2019,07,15,08,17,16.40
2019,07,15,08,18,16.40
2019,07,15,08,19,16.40
2019,07,15,08,20,16.40
2019,07,15,08,21,16.40
2019,07,15,08,22,16.40
2019,07,15,08,23,16.50
2019,07,15,08,24,16.50
2019,07,15,08,25,16.50
2019,07,15,08,26,16.50
2019,07,15,08,27,16.50
2019,07,15,08,28,16.60
2019,07,15,08,29,16.60
2019,07,15,08,30,16.60
2019,07,15,08,31,16.60
2019,07,15,08,32,16.60
2019,07,15,08,33,16.70
2019,07,15,08,34,16.70
2019,07,15,08,35,16.70
2019,07,15,08,36,16.80
2019,07,15,08,37,16.80
2019,07,15,08,38,16.80
2019,07,15,08,39,16.80
2019,07,15,08,40,16.90
2019,07,15,08,41,16.90
2019,07,15,08,42,16.90
2019,07,15,08,43,17.00
2019,07,15,08,44,17.00
2019,07,15,08,45,17.00
2019,07,15,08,46,17.10
2019,07,15,08,47,17.10
2019,07,15,08,48,17.20
2019,07,15,08,49,17.20
2019,07,15,08,50,17.30
2019,07,15,08,51,17.30
2019,07,15,08,52,17.30
2019,07,15,08,53,17.40
2019,07,15,08,54,17.40
2019,07,15,08,55,17.50
2019,07,15,08,56,17.50
2019,07,15,08,57,17.60
2019,07,15,08,58,17.60
2019,07,15,08,59,17.60
2019,07,15,09,00,17.70
2019,07,15,09,01,17.70
2019,07,15,09,02,17.70
2019,07,15,09,03,17.80
2019,07,15,09,04,17.80
2019,07,15,09,05,17.80
2019,07,15,09,06,17.80
2019,07,15,09,07,17.90
2019,07,15,09,08,17.90
2019,07,15,09,09,17.90
2019,07,15,09,10,17.90
2019,07,15,09,11,17.90
2019,07,15,09,12,18.00
2019,07,15,09,13,18.00
2019,07,15,09,14,18.00
2019,07,15,09,15,18.00
2019,07,15,09,16,18.00
2019,07,15,09,17,18.00
2019,07,15,09,18,18.00
2019,07,15,09,19,18.00
2019,07,15,09,20,18.00
2019,07,15,09,21,18.00
2019,07,15,09,22,18.00
2019,07,15,09,23,18.00
2019,07,15,09,24,17.90
2019,07,15,09,25,17.90
2019,07,15,09,26,17.90
2019,07,15,09,27,17.90
2019,07,15,09,28,17.90
2019,07,15,09,29,17.90
2019,07,15,09,30,17.90
2019,07,15,09,31,17.90
2019,07,15,09,32,18.00
2019,07,15,09,33,18.00
2019,07,15,09,34,18.00
2019,07,15,09,35,18.10
2019,07,15,09,36,18.10
2019,07,15,09,37,18.10
2019,07,15,09,38,18.20
2019,07,15,09,39,18.20
2019,07,15,09,40,18.20
2019,07,15,09,41,18.30
2019,07,15,09,42,18.30
2019,07,15,09,43,18.30
2019,07,15,09,44,18.30
2019,07,15,09,45,18.30
2019,07,15,09,46,18.40
2019,07,15,09,47,18.40
2019,07,15,09,48,18.40
2019,07,15,09,49,18.40
2019,07,15,09,50,18.40
2019,07,15,09,51,18.50
2019,07,15,09,52,18.50
2019,07,15,09,53,18.50
2019,07,15,09,54,18.60
2019,07,15,09,55,18.60
2019,07,15,09,56,18.60
2019,07,15,09,57,18.60
2019,07,15,09,58,18.70
2019,07,15,09,59,18.70
2019,07,15,10,00,18.80
2019,07,15,10,01,18.80
2019,07,15,10,02,18.80
2019,07,15,10,03,18.80
2019,07,15,10,04,18.90
2019,07,15,10,05,18.90
2019,07,15,10,06,18.90
2019,07,15,10,07,19.00
2019,07,15,10,08,19.00
2019,07,15,10,09,19.00
2019,07,15,10,10,19.10
2019,07,15,10,11,19.10
2019,07,15,10,12,19.10
2019,07,15,10,13,19.20
2019,07,15,10,14,19.20
2019,07,15,10,15,19.30
2019,07,15,10,16,19.30
2019,07,15,10,17,19.40
2019,07,15,10,18,19.40
2019,07,15,10,19,19.50
2019,07,15,10,20,19.50
2019,07,15,10,21,19.60
2019,07,15,10,22,19.60
2019,07,15,10,23,19.70
2019,07,15,10,24,19.70
2019,07,15,10,25,19.70
2019,07,15,10,26,19.80
2019,07,15,10,27,19.80
2019,07,15,10,28,19.90
2019,07,15,10,29,19.90
2019,07,15,10,30,19.90
2019,07,15,10,31,19.90
2019,07,15,10,32,20.00
2019,07,15,10,33,19.90
2019,07,15,10,34,19.90
2019,07,15,10,35,19.90
2019,07,15,10,36,19.90
2019,07,15,10,37,19.90
2019,07,15,10,38,19.90
2019,07,15,10,39,19.90
2019,07,15,10,40,19.90
2019,07,15,10,41,19.90
2019,07,15,10,42,19.90
2019,07,15,10,43,19.90
2019,07,15,10,44,19.90
2019,07,15,10,45,20.00
2019,07,15,10,46,20.00
2019,07,15,10,47,20.10
2019,07,15,10,48,20.10
2019,07,15,10,49,20.10
2019,07,15,10,50,20.10
2019,07,15,10,51,20.20
2019,07,15,10,52,20.20
2019,07,15,10,53,20.20
2019,07,15,10,54,20.30
2019,07,15,10,55,20.30
2019,07,15,10,56,20.30
2019,07,15,10,57,20.30
2019,07,15,10,58,20.30
2019,07,15,10,59,20.40
2019,07,15,11,00,20.40
2019,07,15,11,01,20.40
2019,07,15,11,02,20.40
2019,07,15,11,03,20.50
2019,07,15,11,04,20.50
2019,07,15,11,05,20.50
2019,07,15,11,06,20.50
2019,07,15,11,07,20.50
2019,07,15,11,08,20.50
2019,07,15,11,09,20.60
2019,07,15,11,10,20.60
2019,07,15,11,11,20.60
2019,07,15,11,12,20.60
2019,07,15,11,13,20.60
2019,07,15,11,14,20.60
2019,07,15,11,15,20.60
2019,07,15,11,16,20.60
2019,07,15,11,17,20.60
2019,07,15,11,18,20.60
2019,07,15,11,19,20.60
2019,07,15,11,20,20.60
2019,07,15,11,21,20.70
2019,07,15,11,22,20.70
2019,07,15,11,23,20.70
2019,07,15,11,24,20.70
2019,07,15,11,25,20.70
2019,07,15,11,26,20.70
2019,07,15,11,27,20.70
2019,07,15,11,28,20.70
2019,07,15,11,29,20.70
2019,07,15,11,30,20.80
2019,07,15,11,31,20.80
2019,07,15,11,32,20.80
2019,07,15,11,33,20.80
2019,07,15,11,34,20.80
2019,07,15,11,35,20.80
2019,07,15,11,36,20.80
2019,07,15,11,37,20.80
2019,07,15,11,38,20.80
2019,07,15,11,39,20.80
2019,07,15,11,40,20.80
2019,07,15,11,41,20.80
2019,07,15,11,42,20.90
2019,07,15,11,43,20.90
2019,07,15,11,44,20.90
2019,07,15,11,45,21.00
2019,07,15,11,46,21.00
2019,07,15,11,47,21.00
2019,07,15,11,48,21.00
2019,07,15,11,49,21.00
2019,07,15,11,50,21.10
2019,07,15,11,51,21.10
2019,07,15,11,52,21.10
2019,07,15,11,53,21.10
2019,07,15,11,54,21.10
2019,07,15,11,55,21.10
2019,07,15,11,56,21.10
2019,07,15,11,57,21.10
2019,07,15,11,58,21.10
2019,07,15,11,59,21.20
2019,07,15,12,00,21.20
2019,07,15,12,01,21.30
2019,07,15,12,02,21.30
2019,07,15,12,03,21.40
2019,07,15,12,04,21.50
2019,07,15,12,05,21.60
2019,07,15,12,06,21.70
2019,07,15,12,07,21.70
2019,07,15,12,08,21.80
2019,07,15,12,09,21.90
2019,07,15,12,10,21.90
2019,07,15,12,11,21.90
2019,07,15,12,12,21.90
2019,07,15,12,13,22.00
2019,07,15,12,14,22.00
2019,07,15,12,15,22.10
2019,07,15,12,16,22.10
2019,07,15,12,17,22.10
2019,07,15,12,18,22.00
2019,07,15,12,19,22.00
2019,07,15,12,20,22.00
2019,07,15,12,21,21.90
2019,07,15,12,22,22.00
2019,07,15,12,23,22.00
2019,07,15,12,24,22.00
2019,07,15,12,25,22.10
2019,07,15,12,26,22.10
2019,07,15,12,27,22.10
2019,07,15,12,28,22.10
2019,07,15,12,29,22.10
2019,07,15,12,30,22.10
2019,07,15,12,31,22.10
2019,07,15,12,32,22.10
2019,07,15,12,33,22.10
2019,07,15,12,34,22.00
2019,07,15,12,35,22.00
2019,07,15,12,36,21.90
2019,07,15,12,37,21.90
2019,07,15,12,38,21.90
2019,07,15,12,39,21.90
2019,07,15,12,40,21.90
2019,07,15,12,41,21.90
2019,07,15,12,42,21.90
2019,07,15,12,43,21.90
2019,07,15,12,44,21.90
2019,07,15,12,45,21.90
2019,07,15,12,46,21.90
2019,07,15,12,47,21.90
2019,07,15,12,48,21.90
2019,07,15,12,49,22.00
2019,07,15,12,50,22.00
2019,07,15,12,51,22.00
2019,07,15,12,52,22.00
2019,07,15,12,53,22.00
2019,07,15,12,54,22.00
2019,07,15,12,55,22.00
2019,07,15,12,56,22.00
2019,07,15,12,57,22.00
2019,07,15,12,58,22.10
2019,07,15,12,59,22.10
2019,07,15,13,00,22.10
2019,07,15,13,01,22.00
2019,07,15,13,02,22.00
2019,07,15,13,03,22.00
2019,07,15,13,04,22.10
2019,07,15,13,05,22.10
2019,07,15,13,06,22.10
2019,07,15,13,07,22.20
2019,07,15,13,08,22.20
2019,07,15,13,09,22.30
2019,07,15,13,10,22.30
2019,07,15,13,11,22.40
2019,07,15,13,12,22.40
2019,07,15,13,13,22.40
2019,07,15,13,14,22.50
2019,07,15,13,15,22.50
2019,07,15,13,16,22.50
2019,07,15,13,17,22.60
2019,07,15,13,18,22.50
2019,07,15,13,19,22.50
2019,07,15,13,20,22.40
2019,07,15,13,21,22.30
2019,07,15,13,22,22.30
2019,07,15,13,23,22.30
2019,07,15,13,24,22.40
2019,07,15,13,25,22.40
2019,07,15,13,26,22.40
2019,07,15,13,27,22.40
2019,07,15,13,28,22.50
2019,07,15,13,29,22.50
2019,07,15,13,30,22.50
2019,07,15,13,31,22.60
2019,07,15,13,32,22.70
2019,07,15,13,33,22.70
2019,07,15,13,34,22.70
2019,07,15,13,35,22.70
2019,07,15,13,36,22.70
2019,07,15,13,37,22.70
2019,07,15,13,38,22.70
2019,07,15,13,39,22.70
2019,07,15,13,40,22.60
2019,07,15,13,41,22.60
2019,07,15,13,42,22.60
2019,07,15,13,43,22.60
2019,07,15,13,44,22.60
2019,07,15,13,45,22.60
2019,07,15,13,46,22.70
2019,07,15,13,47,22.70
2019,07,15,13,48,22.70
2019,07,15,13,49,22.70
2019,07,15,13,50,22.70
2019,07,15,13,51,22.70
2019,07,15,13,52,22.70
2019,07,15,13,53,22.70
2019,07,15,13,54,22.60
2019,07,15,13,55,22.60
2019,07,15,13,56,22.60
2019,07,15,13,57,22.60
2019,07,15,13,58,22.60
2019,07,15,13,59,22.60
2019,07,15,14,00,22.60
2019,07,15,14,01,22.60
2019,07,15,14,02,22.60
2019,07,15,14,03,22.50
2019,07,15,14,04,22.50
2019,07,15,14,05,22.50
2019,07,15,14,06,22.50
2019,07,15,14,07,22.50
2019,07,15,14,08,22.40
2019,07,15,14,09,22.40
2019,07,15,14,10,22.40
2019,07,15,14,11,22.40
2019,07,15,14,12,22.40
2019,07,15,14,13,22.40
2019,07,15,14,14,22.40
2019,07,15,14,15,22.50
2019,07,15,14,16,22.50
2019,07,15,14,17,22.50
2019,07,15,14,18,22.50
2019,07,15,14,19,22.50
2019,07,15,14,20,22.50
2019,07,15,14,21,22.50
2019,07,15,14,22,22.50
2019,07,15,14,23,22.50
2019,07,15,14,24,22.40
2019,07,15,14,25,22.40
2019,07,15,14,26,22.40
2019,07,15,14,27,22.40
2019,07,15,14,28,22.40
2019,07,15,14,29,22.30
2019,07,15,14,30,22.30
2019,07,15,14,31,22.30
2019,07,15,14,32,22.30
2019,07,15,14,33,22.20
2019,07,15,14,34,22.20
2019,07,15,14,35,22.20
2019,07,15,14,36,22.20
2019,07,15,14,37,22.10
2019,07,15,14,38,22.10
2019,07,15,14,39,22.10
2019,07,15,14,40,22.00
2019,07,15,14,41,22.00
2019,07,15,14,42,21.90
2019,07,15,14,43,21.90
2019,07,15,14,44,21.90
2019,07,15,14,45,21.90
2019,07,15,14,46,21.80
2019,07,15,14,47,21.80
2019,07,15,14,48,21.80
2019,07,15,14,49,21.80
2019,07,15,14,50,21.70
2019,07,15,14,51,21.70
2019,07,15,14,52,21.70
2019,07,15,14,53,21.60
2019,07,15,14,54,21.60
2019,07,15,14,55,21.60
2019,07,15,14,56,21.50
2019,07,15,14,57,21.50
2019,07,15,14,58,21.40
2019,07,15,14,59,21.40
2019,07,15,15,00,21.30
2019,07,15,15,01,21.30
2019,07,15,15,02,21.30
2019,07,15,15,03,21.30
2019,07,15,15,04,21.20
2019,07,15,15,05,21.20
2019,07,15,15,06,21.20
2019,07,15,15,07,21.10
2019,07,15,15,08,21.10
2019,07,15,15,09,21.10
2019,07,15,15,10,21.00
2019,07,15,15,11,20.90
2019,07,15,15,12,20.90
2019,07,15,15,13,20.80
2019,07,15,15,14,20.80
2019,07,15,15,15,20.80
2019,07,15,15,16,20.70
2019,07,15,15,17,20.70
2019,07,15,15,18,20.70
2019,07,15,15,19,20.70
2019,07,15,15,20,20.70
2019,07,15,15,21,20.70
2019,07,15,15,22,20.70
2019,07,15,15,23,20.70
2019,07,15,15,24,20.70
2019,07,15,15,25,20.70
2019,07,15,15,26,20.70
2019,07,15,15,27,20.80
2019,07,15,15,28,20.80
2019,07,15,15,29,20.90
2019,07,15,15,30,20.90
2019,07,15,15,31,21.10
2019,07,15,15,32,21.20
2019,07,15,15,33,21.30
2019,07,15,15,34,21.40
2019,07,15,15,35,21.50
2019,07,15,15,36,21.60
2019,07,15,15,37,21.60
2019,07,15,15,38,21.70
2019,07,15,15,39,21.80
2019,07,15,15,40,21.80
2019,07,15,15,41,21.80
2019,07,15,15,42,21.80
2019,07,15,15,43,21.90
2019,07,15,15,44,21.90
2019,07,15,15,45,21.90
2019,07,15,15,46,21.90
2019,07,15,15,47,21.90
2019,07,15,15,48,21.90
2019,07,15,15,49,21.90
2019,07,15,15,50,21.90
2019,07,15,15,51,21.90
2019,07,15,15,52,21.90
2019,07,15,15,53,22.00
2019,07,15,15,54,22.00
2019,07,15,15,55,22.00
2019,07,15,15,56,22.00
2019,07,15,15,57,22.00
2019,07,15,15,58,22.00
2019,07,15,15,59,21.90
2019,07,15,16,00,21.80
2019,07,15,16,01,21.70
2019,07,15,16,02,21.60
2019,07,15,16,03,21.50
2019,07,15,16,04,21.40
2019,07,15,16,05,21.40
2019,07,15,16,06,21.30
2019,07,15,16,07,21.30
2019,07,15,16,08,21.30
2019,07,15,16,09,21.20
2019,07,15,16,10,21.10
2019,07,15,16,11,21.10
2019,07,15,16,12,21.00
2019,07,15,16,13,21.00
2019,07,15,16,14,20.90
2019,07,15,16,15,21.00
2019,07,15,16,16,20.90
2019,07,15,16,17,20.90
2019,07,15,16,18,20.90
2019,07,15,16,19,20.90
2019,07,15,16,20,20.90
2019,07,15,16,21,20.80
2019,07,15,16,22,20.80
2019,07,15,16,23,20.70
2019,07,15,16,24,20.70
2019,07,15,16,25,20.70
2019,07,15,16,26,20.70
2019,07,15,16,27,20.60
2019,07,15,16,28,20.60
2019,07,15,16,29,20.70
2019,07,15,16,30,20.70
2019,07,15,16,31,20.70
2019,07,15,16,32,20.70
2019,07,15,16,33,20.70
2019,07,15,16,34,20.80
2019,07,15,16,35,20.80
2019,07,15,16,36,20.80
2019,07,15,16,37,20.80
2019,07,15,16,38,20.80
2019,07,15,16,39,20.80
2019,07,15,16,40,20.80
2019,07,15,16,41,20.80
2019,07,15,16,42,20.80
2019,07,15,16,43,20.70
2019,07,15,16,44,20.70
2019,07,15,16,45,20.70
2019,07,15,16,46,20.60
2019,07,15,16,47,20.50
2019,07,15,16,48,20.40
2019,07,15,16,49,20.40
2019,07,15,16,50,20.30
2019,07,15,16,51,20.30
2019,07,15,16,52,20.30
2019,07,15,16,53,20.30
2019,07,15,16,54,20.20
2019,07,15,16,55,20.20
2019,07,15,16,56,20.20
2019,07,15,16,57,20.20
2019,07,15,16,58,20.20
2019,07,15,16,59,20.20
2019,07,15,17,00,20.20
2019,07,15,17,01,20.20
2019,07,15,17,02,20.20
2019,07,15,17,03,20.20
2019,07,15,17,04,20.20
2019,07,15,17,05,20.20
2019,07,15,17,06,20.20
2019,07,15,17,07,20.20
2019,07,15,17,08,20.20
2019,07,15,17,09,20.20
2019,07,15,17,10,20.20
2019,07,15,17,11,20.20
2019,07,15,17,12,20.30
2019,07,15,17,13,20.30
2019,07,15,17,14,20.30
2019,07,15,17,15,20.30
2019,07,15,17,16,20.30
2019,07,15,17,17,20.40
2019,07,15,17,18,20.40
2019,07,15,17,19,20.50